Weather History for KHPN - July, 2014

Change the Weather History Date:

Monday, July 7, 2014

  Actual Average Record
Temperature  
Mean Temperature 78 °F -  
Max Temperature 89 °F 79 °F 97 °F (1993)
Min Temperature 69 °F 61 °F 49 °F (1979)
Cooling Degree Days 14    
Growing Degree Days 28 (Base 50)    
Moisture  
Dew Point 63 °F    
Average Humidity 57    
Maximum Humidity 75    
Minimum Humidity 42    
Precipitation  
Precipitation 0.00 in - - ()
Sea Level Pressure  
Sea Level Pressure 29.81 in    
Wind  
Wind Speed 4 mph (SW)    
Max Wind Speed 12 mph    
Max Gust Speed 24 mph    
Visibility 10 miles    
Events      
Averages and records for this station are not official NWS values.
T = Trace of Precipitation, MM = Missing Value Source: NWS Daily Summary

Daily Weather History Graph

Daily Weather History Graph

Search for Another Location

Airport or City:

Trip Planner

Search our weather history database for the weather conditions in past years. The results will help you decide how hot, cold, wet, or windy it might be!

Date:

Astronomy

Jul. 07, 2014 Rise Set
Actual Time 5:29 AM EDT 8:29 PM EDT
Civil Twilight 4:56 AM EDT 9:02 PM EDT
Nautical Twilight 4:14 AM EDT 9:44 PM EDT
Astronomical Twilight 3:24 AM EDT 10:33 PM EDT
Moon 3:28 PM EDT (7/7) 1:22 AM EDT (7/7)
Length of Visible Light 16h 06m
Length of Day
14h 59m
Waxing Gibbous, 72% of the Moon is Illuminated
Jul 7
Waxing Gibbous
Jul 12
Full
Jul 18
Last Quarter
Jul 26
New
Aug 3
First Quarter

Hourly Weather History & Observations

Time (EDT) Temp. Heat Index Dew Point Humidity Pressure Visibility Wind Dir Wind Speed Gust Speed Precip Events Conditions
12:56 AM 71.1 °F - 60.1 °F 68% 29.91 in 10.0 mi Calm Calm - N/A   Clear
1:56 AM 69.1 °F - 61.0 °F 75% 29.90 in 10.0 mi Calm Calm - N/A   Partly Cloudy
2:56 AM 72.0 °F - 61.0 °F 68% 29.88 in 10.0 mi Variable 5.8 mph - N/A   Overcast
3:56 AM 72.0 °F - 61.0 °F 68% 29.87 in 10.0 mi Variable 3.5 mph - N/A   Overcast
4:56 AM 72.0 °F - 61.0 °F 68% 29.86 in 10.0 mi Calm Calm - N/A   Overcast
5:56 AM 71.1 °F - 62.1 °F 73% 29.86 in 10.0 mi Calm Calm - N/A   Mostly Cloudy
6:56 AM 71.1 °F - 62.1 °F 73% 29.86 in 10.0 mi SW 4.6 mph - N/A   Mostly Cloudy
7:56 AM 73.0 °F - 64.0 °F 73% 29.86 in 10.0 mi Variable 5.8 mph - N/A   Clear
8:56 AM 75.9 °F - 64.0 °F 67% 29.85 in 10.0 mi SW 5.8 mph - N/A   Clear
9:56 AM 79.0 °F - 64.0 °F 60% 29.83 in 10.0 mi WSW 5.8 mph - N/A   Clear
10:56 AM 81.0 °F 82.5 °F 64.0 °F 56% 29.82 in 10.0 mi WSW 9.2 mph - N/A   Partly Cloudy
11:56 AM 84.0 °F 85.8 °F 64.9 °F 53% 29.82 in 10.0 mi Variable 4.6 mph - N/A   Partly Cloudy
12:56 PM 84.9 °F 86.6 °F 64.9 °F 51% 29.79 in 10.0 mi SSW 9.2 mph 19.6 mph N/A   Mostly Cloudy
1:56 PM 86.0 °F 86.6 °F 62.6 °F 45% 29.78 in 10.0 mi SSW 11.5 mph 18.4 mph N/A   Partly Cloudy
2:56 PM 88.0 °F 88.4 °F 62.1 °F 42% 29.75 in 10.0 mi WSW 10.4 mph - N/A   Partly Cloudy
3:56 PM 88.0 °F 88.7 °F 63.0 °F 43% 29.73 in 10.0 mi Variable 6.9 mph - N/A   Partly Cloudy
4:56 PM 87.1 °F 87.8 °F 63.0 °F 44% 29.72 in 10.0 mi SW 9.2 mph 18.4 mph N/A   Scattered Clouds
5:56 PM 87.1 °F 87.8 °F 63.0 °F 44% 29.73 in 10.0 mi WSW 9.2 mph 24.2 mph N/A   Scattered Clouds
6:56 PM 86.0 °F 86.8 °F 63.0 °F 46% 29.73 in 10.0 mi WSW 9.2 mph 18.4 mph N/A   Partly Cloudy
7:56 PM 84.9 °F 85.4 °F 62.1 °F 46% 29.75 in 10.0 mi West 4.6 mph - N/A   Clear
8:56 PM 84.0 °F 84.9 °F 63.0 °F 49% 29.76 in 10.0 mi SW 5.8 mph - N/A   Clear
9:56 PM 84.0 °F 84.5 °F 62.1 °F 47% 29.78 in 10.0 mi SW 8.1 mph - N/A   Clear
10:56 PM 82.9 °F 83.3 °F 61.0 °F 47% 29.78 in 10.0 mi Variable 4.6 mph - N/A   Clear
11:56 PM 82.0 °F 83.0 °F 62.1 °F 51% 29.79 in 10.0 mi Variable 5.8 mph - N/A   Clear